Vertical_Velocity
1 1 1 -0 0 -0 0 -1 -1 -2 -1 -2 0 0 0 -1 -0 -0 -1 -1 -1 0 1 -2 -1 1 -1 -4 -2 -0 0 -0 -0 -0 -3 -3 1 1 0 0 1 0 -2 -1 -3 -0 -1
-1 0 1 -3 -1 -1 -0 -0 -1 -1 -1 -1 0 -1 1 -1 -1 -0 0 -1 -1 1 1 -1 -1 -0 -2 -6 1 -2 -1 1 -3 -2 0 -1 -1 1 1 0 2 1 0 -2 -2 -2 -1
0 0 1 -1 -1 -1 -0 -1 -1 -1 -1 -1 -1 -1 -1 0 -2 -1 -1 -1 -1 -0 0 -0 -2 -1 -1 0 0 -2 1 -2 -1 -1 -2 -2 -1 3 1 -0 -0 -0 0 -1 -1 -1 -2
-1 2 -1 2 0 0 -1 -2 -1 -2 -0 -0 -2 -2 -1 -0 -1 -2 -1 -1 -1 0 -1 -0 -2 -3 -1 -0 -2 -1 -1 -3 -1 -1 -0 1 -1 1 1 0 1 2 -0 -0 -4 1 -3
-1 -1 0 2 1 1 2 0 -3 -1 -2 1 -1 -2 -1 -0 -1 -1 -1 -1 -0 -1 -1 -1 -1 -4 -1 3 -2 -2 -1 -0 -0 -2 0 2 -2 -1 -1 1 -0 0 0 1 -8 -0 -1
1 -3 1 -1 1 -0 3 1 0 -3 -1 -1 0 -1 -2 -0 -0 -2 -1 -0 -1 -2 -0 -1 -2 -2 0 0 1 -2 -0 1 2 -1 -2 0 -1 -1 -1 1 -0 -0 0 -1 -1 -4 1
1 -2 -0 -1 1 1 1 2 2 0 -1 -2 -0 -2 -1 -1 -1 -2 -1 -1 -0 -1 -2 -3 -2 -1 -0 -0 2 -0 -0 -2 0 0 -1 0 -1 -1 -4 -3 -2 1 2 1 -4 1 -2
1 2 -1 -1 -2 2 -1 0 1 3 0 -1 -1 -1 -1 -1 -1 -2 -1 -2 0 1 -3 -0 -1 -2 2 -3 -1 0 1 -2 -0 -0 -0 -4 -1 -2 -0 1 2 1 0 -3 -3 -0 -1
-2 2 1 -2 -0 3 0 1 -1 1 2 0 -1 -0 -1 -1 -0 -2 -1 -3 -1 1 -1 -2 -1 -2 2 1 -2 -1 0 0 -0 0 -0 0 -5 0 0 0 2 0 -1 -0 1 -0 -1
1 -1 2 2 -4 2 2 -2 3 1 0 2 -0 0 -0 -0 -1 -1 -0 -1 -2 -2 -9 -8 -1 -1 -1 2 -3 1 2 2 -0 -1 1 -2 -2 1 0 -0 -1 0 -0 -0 -0 1 -0
5 -3 4 -3 2 -2 1 -0 1 1 1 -1 1 0 -1 1 -2 -1 -1 1 0 -1 -11 -13 -4 2 -0 1 -0 -1 -1 1 -0 -1 -6 -11 -1 -1 0 -2 -1 -7 0 -0 -0 -0 -3
-0 2 0 1 -0 -1 -0 0 3 -1 -0 1 0 -0 -0 -0 0 -1 -1 -1 0 -27 -15 -5 -1 -3 -3 -0 -1 -3 -1 -0 3 0 0 -4 -0 2 0 -1 0 -1 1 -1 -1 -1 -3
1 -2 3 -1 1 3 -2 -0 2 0 -2 0 0 0 -3 0 2 -1 0 -0 -17 -11 -10 -5 -2 -1 0 -1 -3 -2 -2 -5 -0 -7 -4 -5 -2 -2 0 -1 -2 -2 -4 -4 -7 -6 -5
1 -1 -1 3 1 -0 0 0 1 3 -2 -1 1 2 -0 -2 -1 2 -1 -11 -9 -5 -2 -1 0 -1 1 0 -1 -1 -1 -2 -0 -2 -1 -2 -19 -2 -2 -4 -1 1 0 -5 -1 -1 -1
-1 -0 1 -1 1 -0 -0 -3 -0 2 1 -1 -2 2 2 -0 -1 -1 1 -6 -9 -2 -1 0 -2 0 -2 -0 2 -2 -0 -0 -1 -1 -4 -2 -6 -2 0 -0 -7 -6 -3 -1 -2 -1 -2
-1 0 -1 2 -1 0 1 -2 -2 0 0 2 -2 2 1 2 -1 -0 -6 -3 -1 -1 -0 -0 -0 -1 0 -1 -1 -1 -1 -3 -1 -0 -1 -1 -5 -1 -1 1 -0 -2 -4 -6 -4 -3 -1
-1 -0 -1 -1 0 2 1 -2 -2 1 1 -2 3 -1 0 4 3 0 -4 -4 -0 -1 -1 -2 -0 0 -2 -0 0 -0 -3 -4 0 -0 0 -1 -3 -11 -1 -0 1 -3 -1 -3 -4 -2 -3
1 1 -3 -2 1 -1 1 1 -3 -1 2 -1 3 -2 -0 -3 1 0 -1 -3 0 -0 1 0 0 0 -0 -0 0 0 -1 -2 0 -1 -0 -1 -2 -1 -5 -1 0 -1 -1 -2 -5 -2 -0
-2 -2 4 -0 0 -2 1 1 0 -3 2 0 1 1 2 2 -2 -1 -1 -1 -1 1 -1 1 -0 -1 -0 -0 -1 0 -0 -0 -0 -0 -2 -3 -3 -3 -12 -8 -3 0 -1 -0 -1 -2 -2
-5 -2 -2 -0 -1 4 -1 4 -1 1 -4 1 0 -3 2 2 1 -1 -0 -1 -0 0 0 -0 -2 0 1 1 0 -2 -0 -0 0 -1 0 -1 -0 -4 -6 -8 -2 -0 0 0 -2 -2 -2
1 -0 3 0 -1 1 2 -0 4 -0 2 -4 1 -4 1 -2 -2 0 0 -1 0 -1 0 2 2 -1 -3 1 0 -1 -0 -0 0 1 1 -3 -0 0 -2 -1 1 -0 -0 0 -0 -2 -4
-0 1 -2 0 -0 5 2 6 4 1 2 1 -1 -1 -0 1 1 1 -0 -3 -1 -1 -4 -2 2 -0 -0 -1 -7 -3 -1 0 -4 1 0 -0 -2 0 -2 0 0 0 -0 0 -0 0 1
-0 0 -0 -3 1 -1 3 4 8 6 1 3 -0 3 0 -0 1 -1 -5 -4 -4 -1 -1 0 -3 -0 2 -9 -0 -0 -1 -0 -1 -3 -0 0 -0 -1 -4 -0 -1 -1 -3 -1 -1 0 -4
-3 -3 -2 -0 -2 2 2 4 6 6 -1 6 0 -0 2 -4 -0 -4 -0 -1 -1 -3 -2 -0 1 -0 -1 1 0 -1 2 1 1 -1 -0 -1 -0 -0 -2 -3 -5 -9 0 -1 -2 -1 0
-4 -3 -2 -1 4 -3 -0 5 2 5 6 3 1 -1 -2 -2 -2 2 1 -1 1 1 1 -0 0 0 -1 -1 -2 -2 -2 -1 1 1 0 -1 -1 -1 -1 -0 -8 1 -0 -1 0 -1 -1
1 -4 -4 -8 -2 -1 1 5 5 3 1 12 2 9 1 -2 -9 -1 -1 -1 -3 -0 -1 1 1 2 1 -2 -1 -0 -2 -3 1 1 -0 -1 -2 -3 1 0 -1 -1 -1 0 1 -5 1
-1 -0 -3 -7 -5 1 -7 0 8 5 1 1 -6 8 10 1 -7 -6 -3 -7 -0 1 -2 0 -1 1 2 -0 0 -1 -3 -2 -2 -1 -0 1 1 -1 -0 -0 -6 -2 -0 1 -9 -9 1
2 1 -3 -11 -4 -0 2 2 10 2 -2 7 -5 -7 2 2 -3 -0 -3 -5 -1 2 -3 1 -2 2 -0 0 -1 -3 0 -3 1 -2 -4 -5 -4 -1 0 1 -1 -1 -2 -4 -5 0 1
-4 -1 -2 3 -16 -5 8 3 10 6 -2 7 13 1 4 3 3 -1 1 -1 3 1 -2 1 -0 -3 -4 -3 -0 -0 0 1 -1 -1 -1 -3 -4 -2 -4 -6 1 -0 1 2 1 2 -0
Height
1563 1563 1563 1561 1560 1558 1556 1554 1552 1551 1549 1548 1546 1546 1546 1546 1546 1545 1545 1543 1541 1539 1537 1535 1532 1531 1528 1527 1528 1525 1524 1521 1519 1518 1517 1517 1517 1517 1517 1516 1516 1515 1516 1516 1514 1513 1512
1564 1564 1564 1563 1561 1559 1557 1555 1553 1551 1549 1547 1545 1545 1544 1544 1544 1543 1543 1542 1541 1539 1537 1535 1533 1531 1530 1528 1527 1525 1523 1522 1519 1518 1517 1517 1517 1517 1517 1516 1516 1514 1514 1513 1511 1510 1510
1565 1565 1564 1563 1562 1560 1558 1556 1554 1552 1549 1546 1544 1543 1542 1542 1541 1541 1541 1541 1540 1539 1537 1535 1534 1532 1530 1531 1527 1525 1523 1521 1519 1518 1517 1516 1516 1517 1517 1516 1514 1513 1514 1510 1507 1505 1506
1565 1565 1565 1564 1562 1561 1559 1556 1554 1552 1549 1546 1544 1542 1541 1539 1538 1538 1538 1539 1539 1538 1536 1535 1533 1532 1530 1528 1527 1525 1524 1522 1520 1518 1517 1517 1516 1516 1517 1516 1513 1512 1512 1514 1498 1499 1501
1565 1565 1565 1563 1563 1561 1559 1557 1555 1553 1550 1546 1543 1541 1539 1537 1536 1536 1536 1537 1537 1536 1535 1534 1533 1532 1531 1529 1527 1525 1523 1522 1520 1519 1518 1517 1517 1517 1517 1516 1515 1510 1509 1514 1505 1496 1494
1566 1565 1565 1564 1562 1561 1560 1558 1556 1553 1550 1546 1543 1541 1538 1536 1535 1534 1535 1536 1536 1535 1535 1533 1533 1534 1531 1530 1527 1525 1523 1522 1520 1518 1518 1518 1517 1518 1518 1517 1514 1513 1509 1508 1506 1496 1492
1565 1565 1565 1564 1562 1561 1559 1558 1556 1553 1550 1546 1543 1540 1538 1535 1534 1534 1536 1536 1538 1537 1534 1535 1535 1532 1530 1530 1526 1524 1522 1521 1521 1519 1518 1518 1518 1518 1514 1511 1513 1510 1509 1504 1497 1491 1493
1565 1565 1564 1563 1562 1560 1559 1557 1556 1553 1550 1546 1543 1540 1537 1535 1534 1534 1535 1536 1536 1537 1535 1533 1533 1531 1530 1528 1526 1523 1522 1522 1521 1521 1518 1520 1516 1509 1509 1510 1510 1506 1508 1506 1494 1493 1494
1564 1563 1564 1562 1560 1559 1558 1557 1555 1552 1550 1547 1542 1540 1537 1535 1534 1534 1535 1536 1535 1535 1535 1533 1532 1531 1530 1529 1526 1523 1522 1520 1519 1519 1517 1518 1509 1505 1506 1505 1507 1506 1501 1501 1500 1495 1498
1563 1562 1562 1561 1560 1558 1557 1556 1554 1552 1549 1546 1542 1539 1537 1535 1536 1534 1534 1534 1534 1534 1546 1536 1532 1531 1530 1527 1526 1523 1521 1521 1518 1519 1516 1513 1505 1504 1503 1502 1503 1499 1497 1496 1495 1496 1496
1561 1561 1561 1560 1559 1558 1557 1555 1553 1551 1549 1546 1543 1539 1537 1535 1534 1534 1535 1534 1534 1536 1570 1535 1531 1529 1527 1529 1526 1522 1521 1519 1518 1517 1520 1510 1505 1504 1500 1498 1498 1496 1493 1491 1493 1497 1501
1559 1559 1559 1559 1557 1557 1555 1554 1553 1550 1548 1546 1543 1540 1537 1536 1535 1534 1533 1533 1535 1552 1563 1536 1531 1530 1527 1526 1526 1522 1521 1520 1517 1515 1515 1513 1507 1506 1502 1498 1494 1490 1490 1492 1497 1498 1503
1558 1558 1558 1557 1555 1555 1554 1553 1552 1550 1548 1545 1542 1540 1538 1536 1536 1534 1534 1535 1550 1557 1541 1535 1534 1532 1532 1528 1525 1525 1525 1526 1528 1529 1526 1515 1506 1505 1504 1503 1497 1496 1499 1512 1507 1508 1503
1556 1556 1556 1555 1555 1553 1552 1551 1550 1548 1547 1544 1541 1539 1537 1536 1535 1534 1534 1537 1549 1542 1539 1534 1534 1532 1532 1529 1526 1526 1526 1530 1527 1529 1538 1534 1522 1505 1505 1510 1514 1508 1505 1514 1510 1511 1504
1553 1553 1552 1552 1552 1552 1551 1549 1548 1547 1545 1543 1540 1538 1536 1535 1535 1535 1536 1554 1547 1539 1534 1535 1533 1532 1531 1529 1530 1526 1528 1529 1527 1525 1529 1532 1516 1504 1504 1503 1504 1503 1509 1510 1514 1522 1516
1550 1549 1549 1548 1548 1548 1548 1547 1547 1546 1544 1542 1539 1537 1535 1533 1533 1534 1537 1540 1535 1533 1534 1534 1533 1533 1533 1531 1530 1528 1527 1524 1525 1524 1523 1525 1527 1506 1503 1504 1501 1500 1502 1509 1513 1508 1505
1546 1546 1545 1545 1544 1544 1544 1544 1544 1543 1543 1541 1538 1536 1534 1532 1532 1532 1541 1538 1533 1531 1532 1535 1534 1533 1534 1533 1531 1530 1527 1523 1522 1524 1524 1524 1526 1511 1505 1505 1504 1505 1506 1510 1512 1514 1509
1540 1540 1540 1540 1540 1541 1541 1539 1540 1540 1540 1539 1537 1536 1531 1533 1535 1532 1533 1530 1529 1529 1530 1531 1532 1532 1532 1530 1530 1529 1527 1524 1521 1521 1523 1524 1528 1526 1507 1506 1505 1505 1505 1507 1515 1507 1523
1532 1533 1533 1534 1535 1535 1536 1537 1536 1537 1537 1537 1536 1531 1529 1529 1535 1532 1528 1527 1526 1527 1527 1529 1529 1529 1529 1529 1528 1525 1522 1520 1521 1522 1521 1523 1526 1531 1509 1510 1506 1505 1504 1508 1512 1515 1512
1524 1524 1526 1527 1528 1529 1530 1531 1533 1534 1534 1537 1535 1532 1527 1527 1525 1527 1527 1525 1525 1524 1524 1523 1524 1526 1528 1527 1527 1524 1521 1519 1518 1519 1520 1521 1526 1521 1519 1507 1509 1508 1504 1506 1507 1517 1507
1516 1516 1517 1518 1520 1522 1524 1525 1526 1528 1531 1533 1532 1526 1522 1524 1522 1522 1524 1523 1524 1524 1525 1522 1522 1522 1524 1525 1522 1525 1520 1517 1519 1518 1519 1520 1521 1526 1516 1511 1511 1506 1503 1505 1507 1503 1502
1507 1506 1507 1509 1511 1514 1516 1517 1520 1520 1524 1527 1526 1524 1522 1520 1519 1520 1520 1520 1519 1519 1521 1520 1521 1515 1519 1521 1516 1516 1516 1517 1515 1518 1519 1520 1516 1517 1512 1503 1509 1506 1501 1503 1503 1502 1503
1499 1497 1498 1499 1501 1503 1506 1509 1512 1512 1515 1516 1518 1518 1519 1517 1517 1519 1516 1511 1513 1514 1512 1513 1513 1515 1516 1512 1511 1511 1511 1512 1513 1514 1517 1519 1519 1517 1507 1505 1504 1495 1489 1496 1494 1494 1491
1491 1488 1486 1486 1488 1492 1496 1499 1502 1503 1505 1509 1510 1513 1514 1512 1511 1510 1508 1507 1509 1510 1510 1510 1511 1512 1510 1508 1508 1510 1509 1509 1510 1513 1513 1517 1518 1521 1515 1505 1501 1483 1485 1486 1487 1484 1485
1483 1479 1476 1475 1476 1478 1482 1487 1491 1494 1496 1498 1502 1505 1505 1506 1502 1501 1504 1505 1505 1507 1508 1507 1507 1508 1509 1509 1511 1509 1510 1507 1509 1511 1513 1512 1517 1517 1520 1513 1489 1480 1484 1484 1482 1480 1481
1476 1470 1465 1461 1461 1463 1467 1472 1478 1482 1488 1491 1492 1497 1499 1498 1493 1494 1494 1497 1502 1506 1507 1503 1505 1506 1507 1509 1512 1510 1506 1498 1505 1512 1514 1514 1514 1517 1520 1510 1486 1481 1481 1481 1482 1487 1481
1469 1463 1455 1448 1445 1446 1451 1458 1464 1471 1477 1481 1484 1488 1492 1489 1485 1489 1490 1489 1492 1496 1500 1501 1503 1505 1505 1509 1512 1512 1506 1501 1499 1505 1512 1512 1515 1514 1513 1507 1491 1482 1480 1480 1484 1491 1483
1463 1456 1448 1437 1428 1426 1432 1442 1451 1459 1467 1472 1474 1480 1484 1481 1480 1481 1483 1483 1485 1488 1492 1497 1501 1501 1506 1508 1507 1503 1505 1499 1498 1494 1499 1499 1505 1509 1509 1505 1491 1481 1481 1483 1487 1483 1483
1459 1451 1444 1429 1418 1414 1422 1432 1440 1448 1455 1463 1465 1470 1476 1478 1476 1475 1476 1479 1481 1479 1483 1488 1489 1489 1491 1498 1503 1500 1499 1500 1495 1489 1492 1496 1491 1491 1493 1486 1480 1482 1484 1485 1485 1484 1482